This is the latest recevied weather packets stored in our database for station/object OK1OBR-13. If no packets are shown the sender has not sent any weather packets the latest 1 day(s).
| Time | Temp. | Humidity | Pressure | Rain* | Wind** | Luminosity | Snow |
|---|---|---|---|---|---|---|---|
| 1778020381 | 13.89° C | 64% | 928.3 hPa | 0 mm | 1.34 m/s, 212° | - | - |
| 1778020321 | 13.89° C | 64% | 928.5 hPa | 0 mm | 1.34 m/s, 206° | - | - |
| 1778020260 | 13.89° C | 64% | 928.4 hPa | 0 mm | 0.45 m/s, 236° | - | - |
| 1778020201 | 13.89° C | 63% | 928.3 hPa | 0 mm | 0.89 m/s, 219° | - | - |
| 1778020140 | 13.89° C | 64% | 928.3 hPa | 0 mm | 0.89 m/s, 219° | - | - |
| 1778020082 | 13.89° C | 63% | 928.2 hPa | 0 mm | 1.34 m/s, 225° | - | - |
| 1778020021 | 13.89° C | 63% | 928.2 hPa | 0 mm | 1.34 m/s, 210° | - | - |
| 1778019961 | 13.89° C | 63% | 928.2 hPa | 0 mm | 1.34 m/s, 210° | - | - |
| 1778019901 | 13.89° C | 64% | 928.1 hPa | 0 mm | 1.34 m/s, 214° | - | - |
| 1778019841 | 13.89° C | 63% | 928.3 hPa | 0 mm | 1.79 m/s, 215° | - | - |
| 1778019781 | 13.89° C | 63% | 928.2 hPa | 0 mm | 0.89 m/s, 216° | - | - |
| 1778019721 | 13.89° C | 63% | 928.3 hPa | 0 mm | 0.89 m/s, 205° | - | - |
| 1778019662 | 13.89° C | 63% | 928.2 hPa | 0 mm | 0.89 m/s, 222° | - | - |
| 1778019601 | 13.89° C | 63% | 928.3 hPa | 0 mm | 1.34 m/s, 198° | - | - |
| 1778019540 | 13.89° C | 63% | 928.2 hPa | 0 mm | 1.34 m/s, 212° | - | - |
| 1778019481 | 13.89° C | 62% | 928.1 hPa | 0 mm | 0.89 m/s, 209° | - | - |
| 1778019421 | 13.89° C | 62% | 928.2 hPa | 0 mm | 1.79 m/s, 173° | - | - |
| 1778019361 | 13.89° C | 62% | 928.1 hPa | 0 mm | 1.34 m/s, 171° | - | - |
| 1778019301 | 13.89° C | 62% | 927.9 hPa | 0 mm | 1.34 m/s, 168° | - | - |
| 1778019241 | 13.89° C | 62% | 927.8 hPa | 0 mm | 1.79 m/s, 173° | - | - |
| 1778019181 | 13.89° C | 62% | 927.9 hPa | 0 mm | 1.34 m/s, 162° | - | - |
| 1778019121 | 13.89° C | 63% | 928.1 hPa | 0 mm | 1.34 m/s, 204° | - | - |
| 1778019062 | 13.89° C | 62% | 928 hPa | 0 mm | 1.34 m/s, 191° | - | - |
| 1778019001 | 13.89° C | 63% | 927.8 hPa | 0 mm | 1.34 m/s, 177° | - | - |
| 1778018941 | 13.89° C | 63% | 927.9 hPa | 0 mm | 1.34 m/s, 171° | - | - |
* Rain since midnight (hover to see other rain measurements)
** Current wind speed in m/s (hover to see current wind gust speed)